Hourly Weather Rukli

Today, 13 April, Tuesday

Time Temperature Precipitation Wind Pressure Humidity
00:00 +10°C° 0 mm 1 mps 748 mmHg 91%
01:00 +10°C° 0 mm 1 mps 748 mmHg 91%
02:00 +10°C° 0 mm 1 mps 748 mmHg 91%
03:00 +10°C° 0 mm 1 mps 748 mmHg 91%
04:00 +9°C° 0 mm 1 mps 748 mmHg 91%
05:00 +9°C° 0 mm 1 mps 748 mmHg 91%
06:00 +10°C° 0 mm 1 mps 748 mmHg 88%
07:00 +11°C° 0 mm 1 mps 748 mmHg 84%
08:00 +12°C° 0 mm 1 mps 748 mmHg 80%
09:00 +13°C° 0 mm 1 mps 748 mmHg 79%
10:00 +13°C° 0 mm 2 mps 747 mmHg 78%
11:00 +14°C° 0 mm 2 mps 747 mmHg 76%
12:00 +14°C° 0 mm 2 mps 747 mmHg 79%
13:00 +13°C° 0 mm 2 mps 747 mmHg 82%
14:00 +13°C° 0 mm 2 mps 747 mmHg 85%
15:00 +13°C° 0 mm 2 mps 747 mmHg 85%
16:00 +13°C° 0 mm 2 mps 746 mmHg 86%
17:00 +13°C° 0 mm 2 mps 746 mmHg 87%
18:00 +12°C° 0 mm 2 mps 746 mmHg 89%
19:00 +12°C° 0 mm 2 mps 746 mmHg 91%
20:00 +10°C° 0 mm 3 mps 746 mmHg 93%
21:00 +10°C° 0 mm 3 mps 746 mmHg 94%
22:00 +9°C° 0 mm 3 mps 745 mmHg 94%
23:00 +9°C° 0 mm 3 mps 745 mmHg 94%

Tomorrow, 14 April, Wednesday

Time Temperature Precipitation Wind Pressure Humidity
00:00 +9°C° 0 mm 3 mps 745 mmHg 94%
01:00 +9°C° 0 mm 3 mps 745 mmHg 95%
02:00 +8°C° 0 mm 2 mps 745 mmHg 95%
03:00 +8°C° 0 mm 2 mps 745 mmHg 95%
04:00 +8°C° 0 mm 2 mps 744 mmHg 95%
05:00 +8°C° 0 mm 2 mps 744 mmHg 96%
06:00 +9°C° 0 mm 2 mps 744 mmHg 94%
07:00 +9°C° 0 mm 2 mps 744 mmHg 92%
08:00 +10°C° 0 mm 2 mps 745 mmHg 90%
09:00 +12°C° 0.3 mm 2 mps 744 mmHg 84%
10:00 +11°C° 0.3 mm 3 mps 744 mmHg 78%
11:00 +12°C° 0.3 mm 3 mps 744 mmHg 72%
12:00 +13°C° 0.1 mm 3 mps 744 mmHg 70%
13:00 +13°C° 0.1 mm 3 mps 744 mmHg 67%
14:00 +13°C° 0.1 mm 3 mps 744 mmHg 64%
15:00 +14°C° 0.2 mm 2 mps 744 mmHg 66%
16:00 +14°C° 0.2 mm 2 mps 744 mmHg 67%
17:00 +14°C° 0.2 mm 2 mps 744 mmHg 68%
18:00 +13°C° 0.1 mm 1 mps 744 mmHg 72%
19:00 +12°C° 0.1 mm 1 mps 744 mmHg 76%
20:00 +12°C° 0.1 mm 1 mps 744 mmHg 80%
21:00 +10°C° 0.1 mm 2 mps 744 mmHg 84%
22:00 +9°C° 0.1 mm 2 mps 744 mmHg 88%
23:00 +9°C° 0.1 mm 2 mps 744 mmHg 92%

Day after tomorrow, 15 April, Thursday

Time Temperature Precipitation Wind Pressure Humidity
00:00 +8°C° 0.5 mm 3 mps 744 mmHg 94%
01:00 +8°C° 0.5 mm 3 mps 744 mmHg 95%
02:00 +8°C° 0.5 mm 3 mps 743 mmHg 96%
03:00 +8°C° 0.3 mm 3 mps 743 mmHg 97%
04:00 +8°C° 0.3 mm 2 mps 743 mmHg 97%
05:00 +7°C° 0.3 mm 2 mps 743 mmHg 97%
06:00 +8°C° 0.3 mm 2 mps 744 mmHg 96%
07:00 +8°C° 0.3 mm 2 mps 744 mmHg 95%
08:00 +8°C° 0.3 mm 2 mps 744 mmHg 94%
09:00 +9°C° 0.1 mm 2 mps 744 mmHg 91%
10:00 +9°C° 0.1 mm 2 mps 744 mmHg 88%
11:00 +10°C° 0.1 mm 2 mps 744 mmHg 85%
12:00 +12°C° 0.1 mm 2 mps 744 mmHg 83%
13:00 +12°C° 0.1 mm 2 mps 744 mmHg 80%
14:00 +12°C° 0.1 mm 3 mps 743 mmHg 78%
15:00 +12°C° 0.3 mm 3 mps 743 mmHg 80%
16:00 +12°C° 0.3 mm 3 mps 743 mmHg 82%
17:00 +11°C° 0.3 mm 3 mps 743 mmHg 84%
18:00 +11°C° 0.5 mm 3 mps 743 mmHg 87%
19:00 +10°C° 0.5 mm 4 mps 743 mmHg 89%
20:00 +10°C° 0.5 mm 4 mps 744 mmHg 91%
21:00 +10°C° 0.4 mm 4 mps 743 mmHg 91%
22:00 +10°C° 0.4 mm 4 mps 743 mmHg 90%
23:00 +10°C° 0.4 mm 4 mps 743 mmHg 90%

16 April, Friday

Time Temperature Precipitation Wind Pressure Humidity
00:00 +8°C° 0.2 mm 5 mps 743 mmHg 90%
01:00 +8°C° 0.2 mm 5 mps 743 mmHg 90%
02:00 +8°C° 0.2 mm 6 mps 743 mmHg 91%
03:00 +8°C° 0 mm 6 mps 744 mmHg 91%
04:00 +7°C° 0 mm 5 mps 744 mmHg 92%
05:00 +7°C° 0 mm 5 mps 744 mmHg 92%
06:00 +7°C° 0 mm 5 mps 744 mmHg 90%
07:00 +8°C° 0 mm 6 mps 744 mmHg 88%
08:00 +8°C° 0 mm 6 mps 745 mmHg 86%
09:00 +9°C° 0.1 mm 6 mps 745 mmHg 84%
10:00 +9°C° 0.1 mm 6 mps 745 mmHg 82%
11:00 +10°C° 0.1 mm 6 mps 745 mmHg 79%
12:00 +10°C° 0.1 mm 6 mps 745 mmHg 78%
13:00 +10°C° 0.1 mm 6 mps 745 mmHg 77%
14:00 +11°C° 0.1 mm 6 mps 745 mmHg 75%
15:00 +10°C° 0.1 mm 6 mps 746 mmHg 80%
16:00 +9°C° 0.1 mm 6 mps 746 mmHg 84%
17:00 +8°C° 0.1 mm 6 mps 746 mmHg 88%
18:00 +8°C° 0.3 mm 6 mps 747 mmHg 89%
19:00 +8°C° 0.3 mm 6 mps 747 mmHg 90%
20:00 +8°C° 0.3 mm 6 mps 747 mmHg 91%
21:00 +8°C° 0.1 mm 6 mps 747 mmHg 89%
22:00 +8°C° 0.1 mm 6 mps 748 mmHg 87%
23:00 +8°C° 0.1 mm 6 mps 748 mmHg 85%

17 April, Saturday

Time Temperature Precipitation Wind Pressure Humidity
00:00 +8°C° 0 mm 6 mps 748 mmHg 86%
01:00 +7°C° 0 mm 6 mps 748 mmHg 87%
02:00 +7°C° 0 mm 5 mps 749 mmHg 87%
03:00 +6°C° 0 mm 5 mps 749 mmHg 87%
04:00 +6°C° 0 mm 5 mps 749 mmHg 88%
05:00 +6°C° 0 mm 5 mps 750 mmHg 88%
06:00 +5°C° 0 mm 6 mps 750 mmHg 85%
07:00 +5°C° 0 mm 6 mps 750 mmHg 81%
08:00 +7°C° 0 mm 6 mps 751 mmHg 78%
09:00 +8°C° 0 mm 6 mps 751 mmHg 73%
10:00 +9°C° 0 mm 7 mps 751 mmHg 68%
11:00 +10°C° 0 mm 7 mps 751 mmHg 63%
12:00 +11°C° 0 mm 7 mps 752 mmHg 59%
13:00 +12°C° 0 mm 7 mps 752 mmHg 55%
14:00 +12°C° 0 mm 7 mps 752 mmHg 52%
15:00 +12°C° 0 mm 7 mps 752 mmHg 51%
16:00 +13°C° 0 mm 6 mps 752 mmHg 51%
17:00 +11°C° 0 mm 6 mps 752 mmHg 50%
18:00 +10°C° 0 mm 5 mps 753 mmHg 54%
19:00 +8°C° 0 mm 5 mps 753 mmHg 58%
20:00 +7°C° 0 mm 4 mps 753 mmHg 61%
21:00 +6°C° 0 mm 4 mps 754 mmHg 64%
22:00 +6°C° 0 mm 4 mps 754 mmHg 67%
23:00 +5°C° 0 mm 4 mps 754 mmHg 70%

18 April, Sunday

Time Temperature Precipitation Wind Pressure Humidity
00:00 +5°C° 0 mm 4 mps 754 mmHg 71%
01:00 +4°C° 0 mm 4 mps 754 mmHg 73%
02:00 +3°C° 0 mm 4 mps 755 mmHg 75%
03:00 +3°C° 0 mm 4 mps 755 mmHg 77%
04:00 +3°C° 0 mm 4 mps 755 mmHg 78%
05:00 +1°C° 0 mm 4 mps 755 mmHg 80%
06:00 +3°C° 0 mm 4 mps 755 mmHg 75%
07:00 +5°C° 0 mm 5 mps 755 mmHg 69%
08:00 +6°C° 0 mm 5 mps 756 mmHg 64%
09:00 +7°C° 0 mm 5 mps 756 mmHg 59%
10:00 +9°C° 0 mm 5 mps 756 mmHg 54%
11:00 +10°C° 0 mm 5 mps 756 mmHg 49%
12:00 +12°C° 0 mm 5 mps 756 mmHg 48%
13:00 +12°C° 0 mm 5 mps 756 mmHg 46%
14:00 +13°C° 0 mm 5 mps 756 mmHg 44%
15:00 +13°C° 0 mm 4 mps 756 mmHg 47%
16:00 +13°C° 0 mm 4 mps 755 mmHg 49%
17:00 +12°C° 0 mm 4 mps 755 mmHg 52%
18:00 +11°C° 0 mm 3 mps 755 mmHg 57%
19:00 +9°C° 0 mm 3 mps 756 mmHg 63%
20:00 +8°C° 0 mm 3 mps 756 mmHg 69%
21:00 +7°C° 0 mm 3 mps 756 mmHg 71%
22:00 +7°C° 0 mm 3 mps 756 mmHg 72%
23:00 +5°C° 0 mm 3 mps 756 mmHg 74%
Show more